sat.trackr.live / text

‹ back to catalog

IRIDE-MS2-HEO-3

NORAD 64568 · 2025-135AS

PAYLOAD ACTIVE UNKNOWN

§ Identity

Operator
Country
IT
Launch date
2025-06-23
Launch site
AFWTR
Launch vehicle
Mass (kg)
RCS (m²)

External: N2YO · Heavens-Above · Gunter

§ Orbital elements

Epoch: 2026-09-21T22:16:44.738112Z

Period
96.52 min
Inclination
97.7812°
Eccentricity
0.0001334
Mean motion
14.91951914 rev/d
Perigee alt
590.9 km
Apogee alt
592.8 km
Semi-major
6,970.0 km
B*
1.2525e-4
RAAN
17.7941°
Arg perigee
79.1310°
Mean anomaly
281.0059°
Rev number
6,830

§ Raw data

IRIDE-MS2-HEO-31 64568U 25135AS  26264.92829558  .00001212  00000+0  12525-3 0  99962 64568  97.7812  17.7941 0001334  79.1310 281.0059 14.91951914 68302

JSON: /api/v1/satellites/64568 · /tle

For live sub-satellite position, see the globe view (requires WebGL).

§ Visibility from observer

Set your observer location to see the next 7 days of passes ≥ 10°. The values pass through the URL so the page stays shareable.

No JS? Fill the form by hand. The geolocation button needs JavaScript.

§ Radio — SatNOGS DB

ModeDescriptionDownlinkUplink
FM Mode S - Transmitter 2.264 GHz

1 transmitter · refreshed weekly from db.satnogs.org